Regional Weather Roundup
Issued by NWS

Home | Current Version | Previous Version | Text Only | Print | Product List | Glossary Off
Versions: 1 2 3 4 5 6 7 8 9 10 11 12 13 14 15 16 17 18 19 20 21 22 23 24 25 26 27 28 29 30 31 32 33 34 35 36 37 38 39 40 41 42 43 44 45 46 47 48 49 50

000
ASUS43 KLSX 271607
RWRMO

WEATHER SUMMARY FOR MISSOURI
NATIONAL WEATHER SERVICE SPRINGFIELD MO
1100 AM CDT WED JUL 27 2016

NOTE: "FAIR" INDICATES FEW OR NO CLOUDS BELOW 12,000 FEET WITH NO
       SIGNIFICANT WEATHER AND/OR OBSTRUCTIONS TO VISIBILITY.
       CURRENT SKY AND/OR WEATHER CONDITIONS ARE NOT AVAILABLE FOR
       CHILLICOTHE AND FARMINGTON.

MOZ001>031-035>038-043-044-053-054-271700-
...NORTHERN AND WESTERN MISSOURI...

CITY           SKY/WX    TMP DP  RH WIND       PRES   REMARKS
KANSAS CTY INT MOSUNNY   83  70  64 S5        29.99F
KANSAS C DTWN  SUNNY     86  68  54 SE15      29.94F
LEE`S SUMMIT   SUNNY     83  72  69 VRB3      30.00F
ST JOSEPH      SUNNY     81  69  67 VRB3      30.00R
CHILLICOTHE      N/A     84  71  65 CALM      30.00S
KIRKSVILLE     MOSUNNY   84  71  65 SE5       30.02S

$$
MOZ066>068-077>081-088>096-101>105-271700-
...SOUTHWEST MISSOURI...

CITY           SKY/WX    TMP DP  RH WIND       PRES   REMARKS
SPRINGFIELD    CLOUDY    76  72  87 W3        30.01S
JOPLIN         MOSUNNY   81  75  82 SE5       29.99F
BRANSON        PTSUNNY   82  73  74 SE3       30.03F

$$
MOZ032>034-039>042-045>050-055>058-069>072-271700-
...CENTRAL MISSOURI...

CITY           SKY/WX    TMP DP  RH WIND       PRES   REMARKS
COLUMBIA       MOSUNNY   83  73  72 SW6       30.00S
JEFFERSON CITY MOSUNNY   83  72  69 SE5       29.98F
ROLLA          PTSUNNY   81  73  76 SW6       30.01R
SEDALIA        MOSUNNY   85  74  69 VRB5      30.01R HX  92
WHITEMAN AFB   PTSUNNY   83  73  70 SE5       29.99R
OSAGE BEACH    MOSUNNY   83  75  77 VRB7      29.99F HX  90

$$
MOZ051-052-059>065-271700-
...EAST CENTRAL MISSOURI...

CITY           SKY/WX    TMP DP  RH WIND       PRES   REMARKS
ST LOUIS INTL  MOSUNNY   85  73  67 VRB3      30.00S HX  91
SPIRIT OF STL  PTSUNNY   84  74  71 SW7       29.98S HX  91
ST CHARLES     MOSUNNY   83  75  77 S8        29.98S HX  90

$$
MOZ072>076-082>087-097>100-106>115-271700-
...SOUTH CENTRAL AND SOUTHEAST MISSOURI...

CITY           SKY/WX    TMP DP  RH WIND       PRES   REMARKS
CAPE GIRARDEAU MOSUNNY   84  74  71 N7        30.00S HX  91
FARMINGTON     PTSUNNY   75  73  93 CALM      30.03R
POPLAR BLUFF   MOSUNNY   85  75  72 NE7       29.99R HX  93
WEST PLAINS    MOSUNNY   83  72  69 VRB3      30.04S

$$



USA.gov is the U.S. government's official web portal to all federal, state and local government web resources and services.